TimeEDT,TemperatureF,Dew PointF,Humidity,Sea Level PressureIn,VisibilityMPH,Wind Direction,Wind SpeedMPH,Gust SpeedMPH,PrecipitationIn,Events,Conditions,WindDirDegrees,DateUTC
12:15 AM,71.6,69.8,94,30.06,10.0,Calm,Calm,-,N/A,,Clear,0,2013-08-23 04:15:00
12:35 AM,69.8,68.0,94,30.05,10.0,Calm,Calm,-,N/A,,Clear,0,2013-08-23 04:35:00
12:55 AM,69.8,68.0,94,30.05,10.0,Calm,Calm,-,N/A,,Clear,0,2013-08-23 04:55:00
1:15 AM,69.8,68.0,94,30.06,10.0,Calm,Calm,-,N/A,,Clear,0,2013-08-23 05:15:00
1:35 AM,69.8,68.0,94,30.06,10.0,Calm,Calm,-,N/A,,Clear,0,2013-08-23 05:35:00
1:55 AM,69.8,68.0,94,30.05,10.0,Calm,Calm,-,N/A,,Clear,0,2013-08-23 05:55:00
2:15 AM,69.8,68.0,94,30.05,7.0,Calm,Calm,-,N/A,,Clear,0,2013-08-23 06:15:00
2:35 AM,69.8,68.0,94,30.04,7.0,Calm,Calm,-,N/A,,Clear,0,2013-08-23 06:35:00
2:55 AM,68.0,68.0,100,30.03,7.0,Calm,Calm,-,N/A,,Clear,0,2013-08-23 06:55:00
3:15 AM,68.0,68.0,100,30.04,5.0,Calm,Calm,-,N/A,,Clear,0,2013-08-23 07:15:00
3:35 AM,68.0,68.0,100,30.03,7.0,Calm,Calm,-,N/A,,Clear,0,2013-08-23 07:35:00
3:55 AM,68.0,68.0,100,30.03,5.0,Calm,Calm,-,N/A,,Clear,0,2013-08-23 07:55:00
4:15 AM,68.0,68.0,100,30.03,7.0,Calm,Calm,-,N/A,,Clear,0,2013-08-23 08:15:00
4:35 AM,68.0,66.2,94,30.02,5.0,Calm,Calm,-,N/A,,Scattered Clouds,0,2013-08-23 08:35:00
4:55 AM,68.0,66.2,94,30.02,7.0,Calm,Calm,-,N/A,,Scattered Clouds,0,2013-08-23 08:55:00
5:15 AM,68.0,66.2,94,30.01,10.0,Calm,Calm,-,N/A,,Clear,0,2013-08-23 09:15:00
5:35 AM,68.0,66.2,94,30.01,10.0,Calm,Calm,-,N/A,,Clear,0,2013-08-23 09:35:00
5:55 AM,68.0,66.2,94,30.01,10.0,Calm,Calm,-,N/A,,Clear,0,2013-08-23 09:55:00
6:15 AM,68.0,66.2,94,30.02,10.0,Calm,Calm,-,N/A,,Clear,0,2013-08-23 10:15:00
6:35 AM,68.0,66.2,94,30.03,7.0,Calm,Calm,-,N/A,,Clear,0,2013-08-23 10:35:00
6:55 AM,66.2,64.4,94,30.04,5.0,Calm,Calm,-,N/A,,Clear,0,2013-08-23 10:55:00
7:15 AM,68.0,66.2,94,30.05,5.0,Calm,Calm,-,N/A,,Mostly Cloudy,0,2013-08-23 11:15:00
7:35 AM,68.0,66.2,94,30.05,7.0,Calm,Calm,-,N/A,,Scattered Clouds,0,2013-08-23 11:35:00
7:55 AM,68.0,66.2,94,30.05,5.0,Calm,Calm,-,N/A,,Mostly Cloudy,0,2013-08-23 11:55:00
8:15 AM,68.0,68.0,100,30.06,7.0,Calm,Calm,-,N/A,,Mostly Cloudy,0,2013-08-23 12:15:00
8:35 AM,69.8,68.0,94,30.07,7.0,Calm,Calm,-,N/A,,Scattered Clouds,0,2013-08-23 12:35:00
8:55 AM,69.8,68.0,94,30.07,10.0,Calm,Calm,-,N/A,,Mostly Cloudy,0,2013-08-23 12:55:00
9:15 AM,69.8,68.0,94,30.07,10.0,SW,3.5,-,N/A,,Mostly Cloudy,230,2013-08-23 13:15:00
9:35 AM,69.8,68.0,94,30.07,10.0,Calm,Calm,-,N/A,,Mostly Cloudy,0,2013-08-23 13:35:00
9:55 AM,71.6,68.0,88,30.07,10.0,Calm,Calm,-,N/A,,Scattered Clouds,0,2013-08-23 13:55:00
10:15 AM,73.4,69.8,88,30.07,10.0,West,3.5,-,N/A,,Clear,280,2013-08-23 14:15:00
10:35 AM,73.4,68.0,83,30.07,10.0,West,4.6,-,N/A,,Clear,270,2013-08-23 14:35:00
10:55 AM,77.0,68.0,74,30.07,10.0,Calm,Calm,-,N/A,,Clear,0,2013-08-23 14:55:00
11:15 AM,77.0,68.0,74,30.07,10.0,WNW,3.5,-,N/A,,Clear,300,2013-08-23 15:15:00
11:35 AM,78.8,69.8,74,30.07,10.0,NW,4.6,-,N/A,,Clear,310,2013-08-23 15:35:00
11:55 AM,78.8,69.8,74,30.06,10.0,West,3.5,-,N/A,,Clear,260,2013-08-23 15:55:00
12:15 PM,80.6,69.8,70,30.06,10.0,SW,3.5,-,N/A,,Clear,230,2013-08-23 16:15:00
12:35 PM,80.6,69.8,70,30.05,10.0,West,5.8,-,N/A,,Clear,270,2013-08-23 16:35:00
12:55 PM,82.4,69.8,66,30.04,10.0,West,5.8,-,N/A,,Scattered Clouds,280,2013-08-23 16:55:00
1:15 PM,82.4,69.8,66,30.03,10.0,West,3.5,-,N/A,,Clear,280,2013-08-23 17:15:00
1:35 PM,84.2,68.0,58,30.03,10.0,WNW,3.5,-,N/A,,Scattered Clouds,290,2013-08-23 17:35:00
1:55 PM,84.2,68.0,58,30.02,10.0,Calm,Calm,-,N/A,,Scattered Clouds,0,2013-08-23 17:55:00
2:15 PM,86.0,68.0,55,30.01,10.0,Calm,Calm,-,N/A,,Scattered Clouds,0,2013-08-23 18:15:00
2:35 PM,86.0,68.0,55,30.00,10.0,WNW,3.5,-,N/A,,Scattered Clouds,300,2013-08-23 18:35:00
2:55 PM,86.0,68.0,55,29.99,10.0,Calm,Calm,-,N/A,,Clear,0,2013-08-23 18:55:00
3:15 PM,86.0,68.0,55,29.98,10.0,Calm,Calm,-,N/A,,Clear,0,2013-08-23 19:15:00
3:35 PM,87.8,68.0,52,29.97,10.0,Calm,Calm,-,N/A,,Mostly Cloudy,0,2013-08-23 19:35:00
3:55 PM,87.8,69.8,55,29.97,10.0,Calm,Calm,-,N/A,,Scattered Clouds,0,2013-08-23 19:55:00
4:15 PM,87.8,69.8,55,29.97,10.0,Calm,Calm,-,N/A,,Mostly Cloudy,0,2013-08-23 20:15:00
4:35 PM,86.0,64.4,48,29.97,10.0,NW,3.5,-,N/A,,Overcast,320,2013-08-23 20:35:00
4:55 PM,84.2,68.0,58,29.97,10.0,Calm,Calm,-,N/A,,Scattered Clouds,0,2013-08-23 20:55:00
5:15 PM,87.8,66.2,49,29.96,10.0,Calm,Calm,-,N/A,,Clear,0,2013-08-23 21:15:00
5:35 PM,87.8,66.2,49,29.97,10.0,Calm,Calm,-,N/A,,Clear,0,2013-08-23 21:35:00
5:55 PM,86.0,66.2,51,29.96,10.0,Calm,Calm,-,N/A,,Clear,0,2013-08-23 21:55:00
6:15 PM,86.0,68.0,55,29.96,10.0,Calm,Calm,-,N/A,,Clear,0,2013-08-23 22:15:00
6:35 PM,84.2,69.8,62,29.97,10.0,Calm,Calm,-,N/A,,Clear,0,2013-08-23 22:35:00
6:55 PM,82.4,71.6,70,29.97,10.0,Calm,Calm,-,N/A,,Clear,0,2013-08-23 22:55:00
7:15 PM,80.6,71.6,74,29.97,10.0,Calm,Calm,-,N/A,,Clear,0,2013-08-23 23:15:00
7:35 PM,80.6,71.6,74,29.97,10.0,Calm,Calm,-,N/A,,Clear,0,2013-08-23 23:35:00
7:55 PM,78.8,73.4,83,29.98,10.0,SE,3.5,-,N/A,,Clear,140,2013-08-23 23:55:00
8:15 PM,78.8,71.6,78,29.99,10.0,SSE,4.6,-,N/A,,Clear,160,2013-08-24 00:15:00
8:35 PM,77.0,71.6,83,30.00,10.0,Calm,Calm,-,N/A,Thunderstorm,Clear,0,2013-08-24 00:35:00
8:55 PM,77.0,71.6,83,30.01,10.0,Calm,Calm,-,N/A,,Clear,0,2013-08-24 00:55:00
9:15 PM,75.2,71.6,89,30.02,10.0,Calm,Calm,-,N/A,,Clear,0,2013-08-24 01:15:00
9:35 PM,75.2,71.6,89,30.03,10.0,Calm,Calm,-,N/A,Thunderstorm,Clear,0,2013-08-24 01:35:00
9:55 PM,73.4,71.6,94,30.04,10.0,SSE,10.4,16.1,N/A,,Mostly Cloudy,160,2013-08-24 01:55:00
10:15 PM,73.4,68.0,83,30.03,10.0,SSE,11.5,17.3,N/A,,Scattered Clouds,150,2013-08-24 02:15:00
10:35 PM,71.6,66.2,83,30.05,10.0,South,6.9,-,N/A,,Clear,170,2013-08-24 02:35:00
10:55 PM,71.6,64.4,78,30.05,10.0,SSW,3.5,-,N/A,,Clear,200,2013-08-24 02:55:00
11:15 PM,71.6,64.4,78,30.05,10.0,South,4.6,-,N/A,,Clear,190,2013-08-24 03:15:00
11:35 PM,69.8,64.4,83,30.05,10.0,Calm,Calm,-,N/A,,Clear,0,2013-08-24 03:35:00
11:55 PM,69.8,64.4,83,30.05,10.0,Calm,Calm,-,N/A,,Clear,0,2013-08-24 03:55:00